Wind_Speed
2 2 1 2 3 4 2 4 1 5 6 6 7 3 3 1 4 4 10 11 13 18 19 16 12 11 11 8 6 4 2 1 1 1 2 3 5 5 6 5 6 6 7 9 8 10 10 9 8
1 1 2 3 4 1 4 3 4 2 7 9 7 3 1 0 2 5 17 12 13 16 18 15 10 13 10 8 5 4 3 1 0 1 2 4 5 5 8 8 7 6 9 10 11 11 11 10 11
1 2 3 4 3 5 4 4 3 5 13 3 1 2 2 2 1 9 7 14 15 16 15 14 12 12 9 7 5 5 3 2 1 1 2 4 4 6 8 8 7 8 9 10 10 11 12 13 12
1 2 5 4 5 6 5 1 4 10 6 6 2 2 1 1 1 10 7 14 14 16 14 13 12 11 8 7 7 5 4 2 1 1 3 4 5 7 8 7 7 10 10 10 9 11 12 12 12
2 2 3 1 5 5 5 6 7 5 6 9 3 2 2 1 4 5 8 12 14 15 16 14 14 7 8 8 7 5 4 3 1 1 2 3 6 8 6 6 11 11 9 7 7 12 12 11 12
2 3 3 3 5 4 6 9 4 3 6 9 1 4 1 3 6 5 10 13 14 12 14 11 13 8 8 8 7 6 5 3 2 0 2 4 6 6 6 8 11 7 8 12 8 12 14 13 17
5 4 3 3 3 5 4 5 1 4 6 4 1 2 2 8 8 9 13 14 15 14 12 10 10 9 9 9 7 6 5 3 2 0 2 4 5 5 6 7 8 8 10 10 13 15 16 17 18
3 4 4 4 2 4 5 9 6 9 2 5 2 3 3 7 12 13 14 16 16 15 12 9 12 10 10 11 9 7 6 4 2 1 2 5 5 6 7 6 7 9 13 13 15 17 15 18 19
4 4 2 3 4 2 7 7 9 12 5 9 4 4 6 5 14 17 19 19 19 18 15 13 12 12 11 13 11 9 7 5 3 2 2 4 5 5 6 5 8 12 13 14 16 16 15 18 19
4 4 7 2 1 4 10 6 16 7 14 5 9 8 8 8 16 21 25 25 22 21 20 16 14 16 13 13 12 10 8 6 5 4 3 4 4 4 5 5 9 12 13 14 16 15 14 16 17
2 5 0 2 7 16 8 11 8 6 7 2 6 11 15 9 18 23 25 23 22 19 19 19 16 18 16 13 13 12 10 8 7 6 4 4 4 5 5 4 9 11 13 13 15 14 14 15 17
1 4 5 6 17 13 8 15 10 9 16 22 22 22 16 12 20 25 25 25 25 24 21 20 19 18 16 16 14 13 11 10 9 7 6 5 4 4 4 5 8 11 12 12 14 14 14 16 18
3 6 13 19 19 20 20 11 14 17 31 26 23 21 19 17 21 24 25 25 26 26 25 23 22 19 19 19 18 17 14 11 10 9 7 6 5 5 4 5 8 11 12 13 13 13 14 18 18
6 7 13 11 22 12 12 10 5 10 16 19 18 21 23 25 26 25 29 29 29 28 28 25 25 21 20 18 19 18 16 14 12 10 9 7 7 6 5 6 8 12 12 13 14 14 15 18 19
4 5 5 13 21 6 28 4 5 9 18 24 25 20 19 21 28 31 31 32 32 31 28 28 27 25 22 20 19 18 18 16 14 12 11 9 9 8 6 6 8 13 13 13 15 15 16 18 20
6 5 5 5 22 8 13 7 6 21 34 33 34 35 32 29 23 25 34 36 35 35 34 31 30 29 25 23 22 19 19 17 15 14 13 11 11 10 8 8 9 14 15 13 15 16 18 19 20
8 3 4 11 14 10 10 10 8 35 36 34 34 36 41 40 37 27 23 29 37 37 37 35 35 33 30 24 24 21 19 19 18 17 15 13 13 12 10 9 10 15 16 15 15 18 18 21 22
3 4 4 5 8 11 18 23 13 24 31 34 38 44 38 44 44 37 31 27 26 35 39 39 38 36 33 29 25 25 23 21 21 19 17 16 15 14 13 12 12 16 18 17 17 19 20 22 23
2 3 6 4 3 15 8 26 24 25 31 29 32 37 43 35 44 44 39 33 27 28 35 39 41 41 38 37 33 31 31 27 25 22 20 18 17 16 16 14 14 16 19 18 19 22 22 24 23
3 3 4 9 12 11 10 29 24 20 14 23 27 33 37 36 37 41 39 37 32 27 30 37 40 42 41 42 38 35 34 30 26 24 22 20 19 19 18 17 15 17 22 22 22 24 26 25 23
4 3 4 7 16 6 11 11 5 9 17 21 21 25 28 32 34 36 34 38 36 32 27 31 38 41 41 44 42 38 32 31 30 30 27 25 23 21 20 19 17 18 21 24 24 24 25 27 24
4 4 8 12 11 4 9 8 5 8 15 9 22 26 32 32 37 37 35 38 37 37 31 30 36 44 44 46 45 43 40 41 39 34 30 28 25 23 22 21 20 19 20 24 25 26 22 23 23
4 10 13 11 8 6 2 2 7 8 6 16 22 30 38 35 39 43 44 40 34 36 35 34 35 41 47 47 47 46 43 40 38 35 32 29 28 26 25 25 23 22 21 25 27 26 26 24 21
9 8 5 1 2 3 3 2 7 5 15 20 23 33 38 45 45 43 41 38 37 32 32 34 34 40 46 49 48 48 46 44 41 38 37 34 32 30 29 28 27 26 24 25 24 23 25 25 22
15 7 4 6 5 3 4 8 9 16 20 17 21 29 36 38 37 42 43 44 42 34 30 32 36 39 44 49 50 48 47 46 42 41 39 39 37 36 34 32 32 31 29 26 23 23 23 23 22
5 4 3 3 4 11 10 6 5 18 26 25 34 34 45 47 47 43 51 51 47 39 33 32 36 38 39 45 51 49 48 48 44 43 40 41 39 37 35 33 33 33 31 29 25 23 21 21 22
4 3 4 4 6 6 4 6 12 14 16 25 33 40 44 50 44 47 51 50 48 38 33 33 33 39 41 41 43 50 51 50 48 45 42 41 40 38 36 35 33 34 33 32 29 25 22 21 22
3 4 4 2 4 5 6 13 11 17 20 27 28 42 53 53 53 53 51 45 48 39 32 29 33 37 40 43 43 46 50 53 48 48 46 43 42 40 38 37 35 35 35 34 33 30 26 24 23
4 2 3 2 2 4 6 5 10 20 21 26 30 46 49 56 48 45 42 44 38 37 32 32 34 34 40 43 46 46 48 50 51 51 47 44 43 41 40 38 37 36 36 35 35 32 28 26 25
4 3 4 3 7 7 13 12 16 11 25 29 37 45 46 52 40 40 40 40 37 31 29 30 35 41 43 43 47 50 48 50 51 52 49 46 44 43 41 40 38 37 37 36 35 33 31 28 26
Wind_Direction
292 266 196 171 55 63 243 258 246 325 340 328 286 196 205 19 158 202 152 154 163 179 178 186 197 195 181 181 198 212 229 255 19 337 348 356 10 10 358 16 22 34 17 24 11 14 358 351 342
290 178 152 112 95 75 268 243 195 232 300 299 298 322 318 295 100 152 155 152 163 173 176 184 181 190 180 186 196 185 196 146 118 2 14 16 26 15 16 15 34 23 39 27 33 22 20 23 26
57 159 148 98 122 187 224 215 207 280 329 278 274 349 338 1 252 164 177 164 164 175 177 172 179 195 182 194 177 170 173 141 140 53 29 44 25 18 20 32 30 40 37 49 38 39 41 40 37
86 143 68 100 219 256 227 98 291 332 346 20 299 323 340 283 320 187 166 170 167 175 174 172 184 197 189 192 171 177 162 147 139 57 42 38 28 31 31 31 44 54 47 38 27 39 36 35 45
148 99 69 111 249 259 259 271 307 313 291 307 241 258 273 196 158 175 192 173 165 175 178 177 191 183 187 181 176 182 163 154 138 57 40 44 33 36 38 41 57 45 47 48 35 42 36 40 52
88 80 69 251 248 276 282 264 288 280 310 311 246 161 238 190 186 197 174 178 173 182 188 202 199 197 195 190 183 186 172 163 148 79 49 47 40 46 57 64 65 42 51 67 64 53 48 59 60
120 92 196 259 268 309 274 345 286 308 294 331 178 152 247 199 199 189 182 178 185 189 197 215 209 204 202 191 191 193 180 176 166 144 65 61 51 67 64 71 72 47 61 60 63 65 63 67 63
118 95 147 239 235 277 330 342 20 12 313 340 262 245 272 233 195 188 190 187 190 197 206 220 215 213 211 197 194 198 190 189 185 178 101 69 71 80 67 57 70 53 60 58 74 72 69 72 68
122 68 202 245 173 284 3 2 354 340 314 329 312 298 279 271 195 189 190 191 200 203 209 216 225 220 212 199 197 199 197 198 195 200 141 98 96 83 70 55 46 57 64 69 80 80 81 79 72
92 122 211 235 12 358 320 12 319 338 333 323 325 334 302 235 201 198 195 199 205 211 213 217 230 220 214 207 204 202 207 203 193 197 165 132 112 97 78 53 57 70 72 81 85 87 88 85 80
80 182 39 58 33 351 307 317 335 327 310 327 330 337 335 221 207 206 210 219 218 221 222 221 230 219 217 219 215 208 209 207 196 198 182 155 130 112 89 73 74 82 86 92 91 93 93 90 92
53 43 32 329 331 329 311 315 307 232 260 285 289 295 294 248 222 221 222 222 226 226 227 228 231 234 226 224 223 218 212 214 202 204 188 170 153 138 112 91 89 99 101 103 101 102 99 99 103
34 348 334 322 332 331 310 268 269 274 282 285 282 280 281 274 250 240 238 236 235 233 234 229 232 236 230 231 227 218 212 214 210 207 198 184 167 162 138 109 103 114 117 116 112 109 107 108 106
320 316 312 336 356 18 352 287 286 269 299 303 297 284 281 275 268 256 243 241 241 243 243 234 233 236 235 229 227 221 212 212 215 210 201 192 173 174 159 125 118 129 130 125 120 117 114 111 106
337 0 340 33 356 21 347 290 212 272 331 333 324 316 299 282 271 263 261 257 252 255 253 241 237 236 236 231 222 220 215 212 216 211 205 194 181 178 170 143 134 140 139 132 128 125 122 114 111
28 48 5 358 6 338 15 261 299 333 333 322 314 310 305 296 292 275 267 261 259 257 256 247 239 238 236 234 222 218 216 213 216 214 211 200 188 182 178 159 149 149 147 141 135 133 131 121 115
23 18 0 322 349 347 34 294 285 313 321 313 309 304 298 293 290 284 280 271 262 259 257 250 241 239 238 236 227 219 220 219 214 215 212 204 194 186 182 170 160 158 155 150 141 140 137 124 113
336 348 316 294 320 347 310 283 289 298 293 287 292 292 288 288 283 284 282 280 273 262 256 252 245 242 238 237 233 223 222 220 217 214 213 207 198 190 186 180 170 164 165 157 148 143 133 127 117
205 232 269 271 304 335 309 288 297 301 285 279 281 284 287 282 286 283 282 282 281 268 254 249 244 241 236 230 228 223 218 215 215 211 212 210 203 196 191 188 180 174 172 164 154 142 140 131 127
338 314 334 307 337 328 298 295 304 287 275 282 286 288 293 297 296 288 281 277 275 276 261 247 243 242 237 232 235 230 222 216 217 215 211 210 206 201 196 192 185 177 176 172 165 155 145 144 141
0 47 318 297 325 278 335 286 8 325 326 330 331 322 314 310 308 308 298 282 278 273 268 252 242 241 237 232 232 231 225 222 217 214 212 209 207 203 199 194 190 183 182 179 170 160 156 152 150
348 347 310 304 335 312 43 291 356 2 338 335 331 333 334 327 329 324 314 305 290 275 270 264 252 240 236 232 231 230 230 220 217 215 212 208 207 204 201 198 193 189 186 183 172 166 168 160 155
281 312 290 294 293 328 335 296 277 344 337 328 321 323 322 325 325 321 317 317 303 291 272 267 252 241 235 233 232 232 230 231 224 216 215 211 209 205 201 200 196 193 186 183 180 176 166 170 165
304 298 326 86 147 38 245 127 300 0 310 312 313 323 323 326 321 324 323 320 306 300 280 264 252 241 235 234 232 231 231 231 224 219 214 212 210 207 202 202 200 195 190 185 184 183 181 178 175
3 6 358 4 10 231 348 305 265 294 289 297 324 326 333 336 329 324 329 332 314 298 288 266 249 241 236 234 232 231 231 233 229 224 217 212 210 208 205 201 201 198 197 195 193 192 192 190 178
340 42 105 304 318 296 283 245 262 291 307 336 340 339 328 325 319 317 316 320 327 301 288 274 254 241 229 233 233 231 231 232 230 228 222 220 216 214 208 205 203 202 200 200 202 202 200 199 192
341 23 294 271 253 271 240 281 299 298 349 341 336 337 330 325 318 314 316 315 317 312 284 275 258 246 237 233 235 233 230 231 228 227 224 224 220 218 213 209 206 202 203 204 204 206 207 206 201
97 279 24 349 345 302 285 300 285 329 333 337 335 332 326 320 311 307 310 307 312 308 287 267 258 253 245 236 236 235 233 230 230 228 223 222 221 219 215 212 207 205 204 205 207 210 210 210 207
346 58 5 133 209 280 303 282 294 308 330 338 326 323 322 318 306 300 307 311 309 301 288 262 252 248 243 239 234 231 233 231 228 228 224 223 223 218 215 214 210 207 206 206 208 210 210 212 213
164 203 118 112 283 271 271 272 274 327 325 331 321 324 324 330 318 307 315 317 316 305 294 274 255 241 240 239 232 230 230 230 226 226 224 220 222 218 215 214 212 209 207 207 207 207 209 211 212
Height
1489 1490 1490 1491 1502 1505 1507 1499 1491 1490 1486 1482 1479 1479 1478 1478 1479 1492 1480 1481 1483 1486 1488 1491 1493 1493 1494 1495 1497 1498 1499 1499 1499 1499 1499 1498 1498 1497 1496 1494 1494 1494 1494 1493 1491 1489 1487 1485 1483
1489 1489 1491 1491 1507 1512 1509 1493 1489 1486 1485 1481 1480 1479 1479 1479 1478 1478 1480 1482 1484 1486 1488 1491 1494 1494 1495 1496 1497 1498 1499 1499 1499 1499 1499 1499 1498 1497 1496 1495 1494 1494 1493 1493 1491 1489 1486 1485 1483
1488 1489 1491 1496 1511 1511 1504 1488 1486 1484 1481 1480 1479 1479 1480 1480 1479 1480 1479 1481 1484 1487 1489 1492 1494 1494 1496 1496 1497 1498 1499 1499 1500 1500 1499 1499 1498 1498 1497 1496 1495 1494 1493 1493 1491 1489 1487 1486 1485
1488 1490 1493 1502 1505 1499 1493 1486 1485 1482 1479 1480 1480 1480 1481 1480 1480 1481 1481 1482 1484 1488 1490 1492 1494 1495 1496 1497 1498 1499 1499 1499 1500 1500 1500 1499 1499 1499 1498 1496 1495 1495 1494 1494 1492 1490 1489 1487 1486
1488 1489 1501 1503 1501 1494 1489 1485 1485 1484 1483 1480 1480 1479 1480 1480 1480 1481 1483 1484 1484 1489 1491 1493 1494 1495 1497 1498 1498 1500 1499 1500 1500 1500 1500 1500 1500 1500 1498 1498 1497 1497 1496 1495 1493 1491 1490 1488 1487
1488 1491 1505 1507 1501 1494 1488 1484 1484 1483 1482 1480 1480 1480 1481 1480 1481 1481 1482 1486 1487 1488 1491 1493 1493 1495 1497 1498 1499 1500 1500 1500 1501 1501 1500 1500 1501 1500 1499 1499 1499 1498 1496 1495 1494 1493 1491 1490 1489
1489 1496 1503 1501 1500 1494 1488 1484 1485 1484 1483 1481 1480 1481 1480 1479 1480 1481 1483 1484 1488 1489 1491 1492 1494 1495 1497 1498 1499 1500 1501 1501 1501 1501 1501 1501 1502 1501 1500 1500 1499 1498 1497 1496 1495 1495 1494 1493 1492
1488 1492 1500 1499 1499 1494 1488 1484 1484 1485 1483 1482 1481 1480 1478 1478 1479 1482 1484 1485 1486 1489 1490 1492 1493 1495 1496 1497 1499 1500 1501 1501 1501 1502 1501 1502 1502 1502 1501 1501 1500 1499 1498 1498 1497 1497 1497 1496 1496
1488 1500 1505 1494 1495 1490 1489 1488 1485 1484 1483 1482 1480 1480 1479 1478 1479 1482 1483 1485 1486 1487 1489 1490 1493 1494 1495 1497 1498 1500 1501 1501 1502 1502 1502 1503 1503 1503 1502 1502 1501 1501 1500 1500 1500 1500 1500 1499 1499
1488 1501 1497 1493 1492 1494 1491 1490 1489 1485 1482 1482 1481 1480 1479 1478 1478 1480 1481 1482 1484 1485 1488 1489 1491 1493 1495 1496 1497 1499 1500 1501 1502 1503 1503 1504 1504 1504 1504 1503 1503 1502 1502 1503 1503 1503 1503 1502 1502
1490 1495 1493 1492 1493 1494 1491 1488 1487 1487 1485 1482 1483 1482 1481 1481 1481 1479 1480 1481 1482 1484 1485 1488 1489 1492 1494 1495 1497 1498 1500 1501 1502 1503 1503 1504 1505 1504 1505 1505 1504 1504 1505 1505 1505 1506 1506 1505 1505
1492 1492 1493 1492 1493 1492 1490 1489 1486 1485 1481 1482 1482 1482 1480 1479 1480 1479 1480 1481 1481 1482 1483 1486 1489 1490 1492 1494 1496 1498 1499 1501 1502 1503 1504 1505 1505 1505 1506 1506 1506 1506 1507 1508 1508 1509 1508 1508 1508
1493 1494 1492 1491 1492 1491 1487 1486 1484 1481 1479 1481 1480 1480 1480 1480 1479 1479 1480 1480 1481 1480 1482 1484 1487 1489 1491 1493 1494 1496 1498 1500 1502 1503 1504 1505 1506 1507 1507 1507 1507 1508 1509 1510 1510 1511 1511 1511 1511
1497 1496 1493 1491 1491 1491 1488 1481 1482 1475 1475 1476 1476 1477 1477 1477 1477 1477 1478 1477 1478 1479 1479 1482 1484 1487 1489 1491 1493 1495 1497 1499 1501 1502 1504 1505 1506 1507 1508 1508 1508 1509 1511 1512 1512 1513 1514 1514 1515
1495 1496 1493 1494 1495 1490 1484 1477 1476 1473 1472 1471 1473 1473 1472 1473 1475 1474 1475 1474 1475 1477 1478 1479 1482 1485 1486 1488 1491 1493 1495 1497 1500 1501 1503 1505 1506 1507 1508 1509 1510 1511 1512 1513 1515 1515 1517 1517 1518
1502 1502 1508 1499 1497 1492 1492 1484 1472 1472 1471 1469 1468 1468 1467 1466 1469 1470 1472 1472 1472 1474 1474 1477 1478 1481 1484 1486 1489 1491 1493 1496 1498 1500 1502 1504 1505 1507 1508 1510 1511 1512 1513 1515 1516 1518 1519 1520 1521
1515 1520 1520 1510 1504 1505 1504 1491 1480 1474 1473 1466 1463 1463 1462 1459 1461 1465 1466 1467 1469 1469 1470 1472 1475 1476 1481 1484 1487 1489 1492 1494 1496 1498 1501 1503 1505 1506 1508 1510 1511 1513 1514 1516 1518 1519 1521 1523 1524
1527 1528 1523 1522 1510 1509 1503 1481 1484 1481 1476 1469 1461 1455 1457 1457 1453 1458 1459 1462 1462 1463 1465 1466 1470 1473 1477 1481 1484 1486 1488 1491 1494 1496 1499 1501 1504 1505 1507 1510 1511 1513 1515 1517 1519 1520 1523 1525 1527
1525 1527 1527 1521 1516 1510 1504 1485 1475 1474 1467 1462 1459 1456 1450 1451 1450 1450 1451 1454 1456 1456 1457 1459 1463 1465 1471 1474 1478 1480 1481 1486 1490 1493 1497 1500 1502 1504 1506 1509 1511 1513 1516 1518 1520 1521 1523 1526 1529
1522 1522 1525 1517 1515 1514 1505 1479 1467 1463 1463 1460 1457 1452 1448 1445 1443 1440 1443 1446 1449 1450 1450 1453 1455 1458 1463 1467 1472 1476 1479 1483 1487 1491 1494 1498 1500 1503 1505 1508 1511 1513 1515 1518 1520 1522 1524 1526 1529
1519 1522 1525 1526 1515 1509 1505 1481 1463 1462 1460 1457 1455 1451 1448 1444 1440 1436 1436 1437 1441 1443 1444 1446 1449 1451 1456 1460 1466 1471 1478 1481 1483 1486 1490 1493 1498 1501 1504 1507 1510 1512 1515 1517 1520 1523 1526 1526 1530
1521 1521 1521 1519 1521 1520 1514 1511 1472 1467 1459 1456 1452 1449 1446 1443 1440 1436 1435 1433 1433 1435 1438 1439 1441 1443 1448 1451 1458 1461 1466 1469 1473 1480 1485 1490 1494 1498 1502 1505 1508 1512 1514 1517 1520 1523 1527 1529 1530
1525 1521 1517 1518 1520 1523 1514 1526 1482 1469 1466 1459 1452 1449 1445 1442 1437 1434 1430 1428 1425 1428 1430 1431 1432 1435 1438 1442 1448 1454 1460 1466 1471 1477 1483 1487 1491 1495 1499 1503 1506 1510 1513 1517 1520 1523 1526 1530 1532
1525 1518 1514 1512 1517 1549 1510 1516 1477 1476 1467 1459 1452 1450 1446 1439 1434 1429 1425 1422 1419 1419 1419 1422 1425 1427 1430 1434 1440 1445 1452 1457 1464 1470 1476 1481 1486 1491 1495 1499 1503 1508 1512 1516 1519 1523 1526 1529 1532
1526 1525 1556 1550 1559 1539 1509 1507 1485 1471 1461 1459 1458 1453 1447 1440 1433 1426 1421 1416 1412 1410 1412 1413 1415 1418 1422 1427 1432 1438 1444 1450 1458 1463 1470 1475 1479 1483 1488 1493 1498 1503 1509 1514 1518 1522 1525 1528 1531
1533 1533 1552 1558 1533 1518 1506 1500 1477 1463 1462 1464 1462 1457 1449 1440 1431 1424 1417 1412 1407 1403 1404 1406 1407 1410 1412 1417 1423 1430 1437 1442 1450 1456 1463 1468 1474 1478 1484 1489 1494 1500 1505 1511 1515 1519 1523 1526 1530
1535 1543 1534 1536 1535 1529 1504 1492 1475 1462 1464 1461 1458 1453 1447 1438 1428 1419 1410 1406 1401 1396 1394 1396 1399 1401 1404 1409 1414 1420 1426 1432 1440 1448 1456 1462 1468 1474 1480 1485 1490 1495 1501 1506 1511 1515 1519 1523 1528
1539 1536 1552 1546 1570 1542 1506 1492 1476 1470 1465 1460 1453 1450 1439 1429 1419 1409 1403 1400 1394 1390 1387 1387 1389 1391 1396 1401 1404 1409 1416 1423 1432 1439 1447 1454 1461 1467 1474 1480 1485 1491 1496 1502 1507 1511 1516 1520 1525
1540 1539 1550 1551 1545 1531 1521 1494 1480 1476 1473 1465 1455 1449 1440 1427 1413 1405 1400 1394 1387 1381 1379 1377 1379 1382 1385 1391 1395 1399 1404 1412 1422 1429 1438 1447 1453 1460 1467 1474 1480 1485 1490 1496 1501 1507 1512 1516 1520
1542 1543 1544 1566 1551 1532 1522 1500 1479 1477 1474 1471 1458 1446 1434 1422 1408 1402 1396 1388 1381 1374 1369 1366 1368 1369 1372 1380 1387 1390 1396 1401 1410 1418 1428 1438 1445 1453 1460 1467 1474 1480 1485 1490 1496 1502 1506 1511 1515